Regional Weather Roundup
Issued by NWS Nashville, TN

Home | Current Version | Previous Version | Text Only | Print | Product List | Glossary On
Versions: 1 2 3 4 5 6 7 8 9 10 11 12 13 14 15 16 17 18 19 20 21 22 23 24 25 26 27 28 29 30 31 32 33 34 35 36 37 38 39 40 41 42 43 44 45 46 47 48 49 50
000
ASUS44 KOHX 270810
RWROHX
MIDDLE TENNESSEE HOURLY WEATHER ROUNDUP
NATIONAL WEATHER SERVICE NASHVILLE TN
200 AM CST SAT DEC 27 2014

NOTE: "FAIR" INDICATES FEW OR NO CLOUDS BELOW 12,000 FEET WITH
NO SIGNIFICANT WEATHER AND/OR OBSTRUCTIONS TO VISIBILITY.

* THESE REPORTS ARE NOT UNDER NWS QUALITY CONTROL AND MAY NOT
  REPORT WEATHER SUCH AS PRECIPITATION AND FOG.


TNZ005>011-023>034-057-059-062>066-078-080-270900
...NORTHERN MIDDLE TENNESSEE...

CITY           SKY/WX    TMP DP  RH WIND       PRES   REMARKS
CLARKSVILLE    CLOUDY    47  39  74 SE8       30.18F
CROSSVILLE     CLOUDY    48  32  53 S6        30.24R
GALLATIN       CLOUDY    47  39  73 SE3       30.24R
DICKSON        CLOUDY    48  37  66 S8        30.17S
LEBANON        MOCLDY    47  38  71 CALM      30.22R
LIVINGSTON     CLOUDY    47  33  58 SW3       30.22R
NASHVILLE      CLOUDY    48  38  68 SE5       30.22R
WEST NASHVILLE CLOUDY    46  36  66 SE5       30.21S
PORTLAND       CLOUDY    46  36  66 S6        30.20R
SMYRNA         CLOUDY    47  39  73 CALM      30.24R
SPARTA         MOCLDY    46  36  66 CALM      30.23R
$$
TNZ056-058-060-061-075>077-079-093>097-270900
...SOUTHERN MIDDLE TENNESSEE...

CITY           SKY/WX    TMP DP  RH WIND       PRES   REMARKS
COLUMBIA       CLOUDY    48  46  93 S8        30.18F
LEWISBURG      CLOUDY    42  39  89 SE5       30.22R
MCMINNVILLE    PTCLDY    39  39 100 CALM      30.24R
MURFREESBORO   CLOUDY    48  37  65 CALM      30.23R
SHELBYVILLE    CLOUDY    45  39  81 SE3       30.24R
TULLAHOMA      MOCLDY    43  36  75 CALM      30.24R
WINCHESTER     PTCLDY    45  36  70 S9        30.24S
$$


...KEY TO REMARKS...
VSB - VISIBILITY IN MILES
WCI - WIND CHILL INDEX
HX  - HEAT INDEX



USA.gov is the U.S. government's official web portal to all federal, state and local government web resources and services.